Murray, KY

10:26 PM CST on January 19, 2018 (GMT -0600)
Kyle-Oakley

Weather History for KCEY - September, 2012

Change the Weather History Date:

Thursday, September 20, 2012

  Actual Average (KPAH) Record (KPAH)
Temperature  
Mean Temperature 66 °F -  
Max Temperature 80 °F 79 °F 95 °F (1955)
Min Temperature 53 °F 58 °F 41 °F (1991)
Cooling Degree Days 2    
Growing Degree Days 16 (Base 50)    
Moisture  
Dew Point 48 °F    
Average Humidity 54    
Maximum Humidity 68    
Minimum Humidity 34    
Precipitation  
Precipitation 0.00 in - - ()
Sea Level Pressure  
Sea Level Pressure 30.04 in    
Wind  
Wind Speed 7 mph (SSW)    
Max Wind Speed 15 mph    
Max Gust Speed 20 mph    
Visibility 10 miles    
Events      
Averages and records for this station are not official NWS values.
T = Trace of Precipitation, MM = Missing Value Source: NWS Daily Summary

Daily Weather History Graph

Daily Weather History Graph

Search for Another Location

Airport or City:

Trip Planner

Search our weather history database for the weather conditions in past years. The results will help you decide how hot, cold, wet, or windy it might be!

Date:

Astronomy

Sep. 20, 2012 Rise Set
Actual Time 6:40 AM CDT 6:52 PM CDT
Civil Twilight 6:14 AM CDT 7:18 PM CDT
Nautical Twilight 5:44 AM CDT 7:48 PM CDT
Astronomical Twilight 5:13 AM CDT 8:19 PM CDT
Moon 11:48 AM CDT 10:03 PM CDT
Length of Visible Light 13h 04m
Length of Day
12h 12m
Waxing Crescent, 27% of the Moon is Illuminated
Sep 20
Waxing Crescent
Sep 22
First Quarter
Sep 29
Full
Oct 8
Last Quarter
Oct 15
New

Hourly Weather History & Observations

Time (CDT) Temp. Dew Point Humidity Pressure Visibility Wind Dir Wind Speed Gust Speed Precip Events Conditions
12:15 AM 53.6 °F 42.8 °F 67% 30.10 in 10.0 mi South 4.6 mph - N/A   Unknown
12:35 AM 53.6 °F 42.8 °F 67% 30.10 in 10.0 mi South 5.8 mph - N/A   Unknown
12:55 AM 55.4 °F 41.0 °F 58% 30.09 in 10.0 mi South 5.8 mph - N/A   Unknown
1:15 AM 55.4 °F 41.0 °F 58% 30.09 in 10.0 mi South 6.9 mph - N/A   Unknown
1:35 AM 57.2 °F 41.0 °F 55% 30.09 in 10.0 mi South 6.9 mph - N/A   Unknown
1:55 AM 55.4 °F 41.0 °F 58% 30.08 in 10.0 mi SSW 5.8 mph - N/A   Unknown
2:15 AM 55.4 °F 42.8 °F 63% 30.08 in 10.0 mi SSW 4.6 mph - N/A   Scattered Clouds
2:35 AM 55.4 °F 42.8 °F 63% 30.08 in 10.0 mi South 5.8 mph - N/A   Unknown
2:55 AM 53.6 °F 42.8 °F 67% 30.08 in 10.0 mi South 5.8 mph - N/A   Unknown
3:15 AM 55.4 °F 42.8 °F 63% 30.07 in 10.0 mi South 6.9 mph - N/A   Partly Cloudy
3:35 AM 55.4 °F 42.8 °F 63% 30.07 in 10.0 mi SSW 5.8 mph - N/A   Clear
3:55 AM 55.4 °F 42.8 °F 63% 30.07 in 10.0 mi SSW 5.8 mph - N/A   Clear
4:55 AM 53.6 °F 42.8 °F 67% 30.07 in 10.0 mi SSW 6.9 mph - N/A   Mostly Cloudy
5:15 AM 53.6 °F 42.8 °F 67% 30.08 in 10.0 mi SSW 5.8 mph - N/A   Clear
5:35 AM 53.6 °F 42.8 °F 67% 30.08 in 10.0 mi SSW 5.8 mph - N/A   Clear
5:55 AM 53.6 °F 42.8 °F 67% 30.08 in 10.0 mi South 6.9 mph - N/A   Clear
6:15 AM 53.6 °F 42.8 °F 67% 30.09 in 10.0 mi South 5.8 mph - N/A   Unknown
6:35 AM 53.6 °F 42.8 °F 67% 30.08 in 10.0 mi South 10.4 mph - N/A   Unknown
6:55 AM 53.6 °F 42.8 °F 67% 30.09 in 10.0 mi South 6.9 mph - N/A   Clear
7:35 AM 55.4 °F 44.6 °F 67% 30.08 in 10.0 mi South 4.6 mph - N/A   Clear
7:55 AM 57.2 °F 46.4 °F 67% 30.08 in 10.0 mi SSW 5.8 mph - N/A   Clear
8:15 AM 59.0 °F 46.4 °F 63% 30.08 in 10.0 mi SSW 6.9 mph - N/A   Clear
8:55 AM 62.6 °F 46.4 °F 55% 30.08 in 10.0 mi SW 10.4 mph 16.1 mph N/A   Clear
9:15 AM 64.4 °F 46.4 °F 52% 30.08 in 10.0 mi SSW 10.4 mph 18.4 mph N/A   Clear
9:35 AM 66.2 °F 46.4 °F 49% 30.08 in 10.0 mi SW 9.2 mph - N/A   Clear
9:55 AM 66.2 °F 46.4 °F 49% 30.07 in 10.0 mi SW 11.5 mph 18.4 mph N/A   Clear
10:15 AM 68.0 °F 46.4 °F 46% 30.07 in 10.0 mi SSW 10.4 mph - N/A   Clear
10:35 AM 69.8 °F 46.4 °F 43% 30.06 in 10.0 mi SW 10.4 mph 17.3 mph N/A   Clear
10:55 AM 71.6 °F 46.4 °F 41% 30.06 in 10.0 mi SW 11.5 mph 19.6 mph N/A   Clear
11:15 AM 71.6 °F 48.2 °F 43% 30.06 in 10.0 mi SW 11.5 mph - N/A   Clear
11:35 AM 73.4 °F 48.2 °F 41% 30.06 in 10.0 mi SW 11.5 mph - N/A   Clear
11:55 AM 73.4 °F 48.2 °F 41% 30.05 in 10.0 mi SW 11.5 mph 18.4 mph N/A   Clear
12:15 PM 73.4 °F 48.2 °F 41% 30.04 in 10.0 mi SSW 12.7 mph 18.4 mph N/A   Clear
12:35 PM 75.2 °F 50.0 °F 41% 30.04 in 10.0 mi SW 12.7 mph 16.1 mph N/A   Clear
12:55 PM 75.2 °F 50.0 °F 41% 30.03 in 10.0 mi SW 15.0 mph 19.6 mph N/A   Clear
1:15 PM 77.0 °F 48.2 °F 36% 30.02 in 10.0 mi SW 11.5 mph 17.3 mph N/A   Clear
1:35 PM 77.0 °F 50.0 °F 39% 30.01 in 10.0 mi SW 8.1 mph - N/A   Clear
1:55 PM 77.0 °F 50.0 °F 39% 30.00 in 10.0 mi SW 10.4 mph 17.3 mph N/A   Clear
2:15 PM 78.8 °F 48.2 °F 34% 30.00 in 10.0 mi SW 12.7 mph 19.6 mph N/A   Clear
2:35 PM 78.8 °F 50.0 °F 36% 30.00 in 10.0 mi SW 11.5 mph - N/A   Clear
2:55 PM 78.8 °F 50.0 °F 36% 29.99 in 10.0 mi WSW 10.4 mph - N/A   Clear
3:15 PM 80.6 °F 50.0 °F 34% 29.99 in 10.0 mi SW 11.5 mph - N/A   Clear
3:55 PM 80.6 °F 50.0 °F 34% 29.98 in 10.0 mi WSW 9.2 mph - N/A   Clear
4:15 PM 80.6 °F 50.0 °F 34% 29.98 in 10.0 mi SW 11.5 mph - N/A   Clear
4:35 PM 80.6 °F 51.8 °F 37% 29.98 in 10.0 mi WSW 10.4 mph - N/A   Partly Cloudy
4:55 PM 78.8 °F 51.8 °F 39% 29.98 in 10.0 mi WSW 9.2 mph - N/A   Partly Cloudy
5:15 PM 77.0 °F 51.8 °F 41% 29.98 in 10.0 mi SW 8.1 mph - N/A   Scattered Clouds
5:35 PM 77.0 °F 51.8 °F 41% 29.98 in 10.0 mi SW 5.8 mph - N/A   Partly Cloudy
5:55 PM 75.2 °F 53.6 °F 47% 29.98 in 10.0 mi SW 5.8 mph - N/A   Partly Cloudy
6:15 PM 75.2 °F 53.6 °F 47% 29.98 in 10.0 mi SW 5.8 mph - N/A   Mostly Cloudy
6:35 PM 73.4 °F 53.6 °F 50% 29.98 in 10.0 mi SW 4.6 mph - N/A   Mostly Cloudy
6:55 PM 71.6 °F 53.6 °F 53% 29.98 in 10.0 mi SSW 4.6 mph - N/A   Scattered Clouds
7:15 PM 69.8 °F 53.6 °F 56% 29.98 in 10.0 mi SSW 4.6 mph - N/A   Unknown
7:35 PM 69.8 °F 53.6 °F 56% 29.99 in 10.0 mi SSW 4.6 mph - N/A   Unknown
7:55 PM 68.0 °F 53.6 °F 60% 30.00 in 10.0 mi SSW 4.6 mph - N/A   Unknown
8:15 PM 68.0 °F 53.6 °F 60% 30.00 in 10.0 mi SSW 4.6 mph - N/A   Scattered Clouds
8:35 PM 68.0 °F 53.6 °F 60% 30.01 in 10.0 mi SSW 5.8 mph - N/A   Unknown
8:55 PM 68.0 °F 53.6 °F 60% 30.01 in 10.0 mi SSW 5.8 mph - N/A   Unknown
9:15 PM 68.0 °F 53.6 °F 60% 30.01 in 10.0 mi SW 4.6 mph - N/A   Mostly Cloudy
9:55 PM 66.2 °F 53.6 °F 64% 30.01 in 10.0 mi SSW 5.8 mph - N/A   Unknown
10:15 PM 66.2 °F 53.6 °F 64% 30.02 in 10.0 mi SW 5.8 mph - N/A   Unknown
10:35 PM 66.2 °F 53.6 °F 64% 30.02 in 10.0 mi SSW 4.6 mph - N/A   Clear
10:55 PM 66.2 °F 53.6 °F 64% 30.02 in 10.0 mi SSW 5.8 mph - N/A   Clear
11:15 PM 64.4 °F 53.6 °F 68% 30.02 in 10.0 mi SSW 5.8 mph - N/A   Unknown
11:35 PM 66.2 °F 53.6 °F 64% 30.02 in 10.0 mi SW 5.8 mph - N/A   Clear
11:55 PM 64.4 °F 53.6 °F 68% 30.02 in 10.0 mi SSW 5.8 mph - N/A   Clear